Погода Назимово

Погода Назимово : погода сейчас, прогноз погоды и архив. Всё, что Вы хотите узнать о погоде Назимово!

Поиск расширенной информации на нашем сайте:

Другие новости

Новости СМИ2

Главная страница сайта

Новости сайта

03.07.2017

Напоминаем, что на нашем специализированном сайте Метеоцентр.Азия вы можете получить высокодетализированные автоматические прогнозы погоды по пунктам России, СНГ и мира в авиационном формате (включающие направление и скорость ветра, видимость, явления погоды, количество и форму облачности, нижнюю и верхнюю границу облачности).


Погода Назимово - сегодня

Время (UTC), дата Ветер
(°,м/с) 
Видим.   Явления Облачность Т
(°С)
Тd
(°С)
f(%) Тe
(°С)
Pmin
(гПа)
dP
(гПа)
Po
(мм)
O2
(г/м3)
Тmin Tmax R s Состояние
почвы
15 09.12.17 140 (ЮВ) н/о  слаб. снег  10/10 2000 м 
[Ns]
-7 -9.5 82 -11  1032.3  -1.2  768  318           
18 09.12.17 160 (Ю) н/о  {снег}  10/10 2000 м 
[Ns]
-6.7 -9.1 83 -9  1031.8  -0.5  767  318           
21 09.12.17 160 (Ю) н/о  позёмок  10/10 2000 м 
[Ns]
-7 -9.5 82 -11  1031.5  -0.3  767  318           
00 10.12.17 150 (ЮВ) н/о  позёмок  10/10 2000 м 
[Ns]
-7 -9.9 80 -11  1031.2  -0.3  767  318  -8    0.0  38  равномерный
сухой снег
100% 
03 10.12.17 140 (ЮВ) 5{11}  20000 м  позёмок  ясно 
-9 -12.4 76 -14  1031.9  0.6  767  321  -9.1         
06 10.12.17 140 (ЮВ) 5-10{10}  20000 м  позёмок  3/0 верхняя 
[Ci fib]
-9.8 -15.7 62 -14  1030.7  -1.2  766  322           
09 10.12.17 140 (ЮВ) 4{10}  20000 м    8/0 верхняя 
[Cs]
-11.3 -14.8 75 -15  1030.9  0.2  767  324           
12 10.12.17 160 (Ю) н/о    8/0 верхняя 
[Cs]
-12.4 -15.9 75 -16  1030.2  -0.7  766  325    -6.9       
15 10.12.17 150 (ЮВ) н/о    10/0 верхняя 
[Cs]
-12.7 -16.2 75 -17  1030.6  0.3  766  325           
18 10.12.17 140 (ЮВ) н/о    10/0 верхняя 
[Cs]
-12.7 -16.2 75 -17  1030.6  0.4  766  325           
21 10.12.17 150 (ЮВ) н/о    10/0 верхняя 
[Cs]
-15.9 -19.3 75 -18  1029.9  -0.7  766  329           
00 11.12.17 170 (Ю) н/о    ясно 
-15.3 -18 80 -19  1030.1  0.2  766  328  -15.9      38  равномерный
сухой снег
100% 
03 11.12.17 150 (ЮВ) 20000 м    ясно 
-18 -20.6 80 -21  1030.8  0.6  766  332  -18.1         
06 11.12.17 150 (ЮВ) 20000 м    10/10 2000 м 
[Ac As]
-16.9 -19.5 80 -22  1031  0.2  766  331           
09 11.12.17 150 (ЮВ) 10 км  слаб. снег  10/10 2000 м 
[Ac As]
-16.4 -19 80 -21  1031.2  0.2  767  330           
12 11.12.17 160 (Ю) н/о  {снег}  9/9 2000 м средняя 
[Ac As]
-17.1 -19.7 80 -21  1031  -0.2  766  331    -15.2  0.0     
15 11.12.17 150 (ЮВ) н/о  слаб. снег  10/10 2000 м 
[Ns]
-16.4 -19 80 -20  1030.4  -0.6  766  330           
18 11.12.17 170 (Ю) н/о  слаб. снег  10/10 2000 м 
[Ns]
-15.8 -17.7 85 -18  1029.8  -0.5  766  329           
21 11.12.17 160 (Ю) н/о  слаб. снег  10/10 2000 м 
[Ns]
-15.7 -17.6 85 -18  1029.4  -0.4  765  329           
00 12.12.17 150 (ЮВ) н/о  слаб. ливневой снег  10/10 600 м кучево-дожд. 
[Cb cap]
-15.7 -17.6 85 -18  1028.4  -1  765  328  -17.2    0.4  39  равномерный
сухой снег
100% 
03 12.12.17 140 (ЮВ) 4000 м  слаб. снег{ливн. осадки}  10/10 2000 м 
[Ns]
-15.9 -17.8 85 -20  1028  -0.4  764  328           
06 12.12.17 150 (ЮВ) 10 км  слаб. снег{ливн. осадки}  10/10 2000 м 
[Ns]
-15.4 -17.3 85 -18  1027.4  -0.7  764  328           
09 12.12.17 140 (ЮВ) 10 км  слаб. снег  10/10 2000 м 
[Ac As]
-15.1 -17.1 85 -15  1027.1  -0.2  764  327           
12 12.12.17 290 (З) н/о  слаб. снег  10/10 2000 м 
[As trans]
-17.4 -18.6 90 -18  1027.5  0.3  764  330    -15  0.7     
15 12.12.17 310 (СЗ) н/о  слаб. снег  10/10 2000 м 
[Ac As]
-14.9 -16.2 90 -17  1028.5  1.1  765  327           
Время (UTC), дата Ветер
(°,м/с) 
Видим.   Явления Облачность Т
(°С)
Тd
(°С)
f(%) Тe
(°С)
Pmin
(гПа)
dP
(гПа)
Po
(мм)
O2
(г/м3)
Тmin Tmax R s Состояние
почвы

Для получения пояснительной информации подведите курсор к названию столбца.

ПОГОДА Назимово - архив

Всё, что Вы хотите узнать о погоде Назимово - удобно и подробно!

Выберите нужную дату (начиная с 1 января 2015* года) и нажмите кнопку "Найти".
Будут отображены архивные сводки погоды по пункту Назимово, начиная с указанной даты.


Отображать данные в формате CSV (для использования в таблицах Excel)


Внимание! Наш архив погоды предназначен исключительно для личного некоммерческого использования в познавательных целях. Если Вам необходимы официальные справки о состоянии погоды (для производственных, юридических, коммерческих и т.п. целей), обращайтесь в органы Росгидромета.

*Примечание: данная дата относится к архиву по метеостанциям СССР (Россия, СНГ, Балтия).
Архив по метеостанциям Зарубежной Европы и Азии (кроме Китая) хранится 10 дней, по другим регионам земного шара (Китай, Африка, Америка, Австралия, Океания) - 1 день.

Назимово - район местоположения метеостанции


Название, широта, долгота, высота метеостанции:
Назимово 59.5°ш. 91°д. 67 м над ур. моря [Российская Федерация]

Дополнительная информация

В oтличие oт бoльшинства пoгoдных сайтoв мы публикуем пoдрoбную метеoинфoрмацию в детальнoм прoфессиoнальнoм фoрмате.

Характеристики температуры и влажнoсти вoздуха измеряются на высoте 2 м в тени вдали oт зданий и деревьев.
Скoрoсть ветра измеряется на высoте 10 м (на урoвне рoста челoвека скoрoсть ветра ниже в 1.5-2 раза). Если метеoстанция нахoдится в гoрoде или в лесу, тo скoрoсть ветра занижена на 2-4 м/с пo сравнению с oткрытым местoм. Скoрoсть ветра над акватoриями крупных рек и oзёр, а также на вершинах хoлмoв на 2-5 м/с выше, чем в oбычных услoвиях.
Атмoсфернoе давление в разных тoчках местнoсти мoжет значительнo oтличаться oт давления на метеoстанции, в зависимoсти oт услoвий рельефа (при пoдъёме на 10 м давление пoнижается примернo на 1 мм рт.ст.).